Location: Saint-Denis
(20.8800°S, 55.4481°E)
Time: 00:36:15
(UTC+04:00)

BEESAT 2 - Pass Details

Date: 11 June 2023
Orbit: 400 x 436 km, 64.9° (Epoch: 25 September)

Event Time Altitude Azimuth Distance (km) Brightness Sun altitude
Rises 06:16:00 0° 193° (SSW) 2,332 ? -8.4°
Reaches altitude 10° 06:18:10 10° 183° (S) 1,470 ? -7.9°
Maximum altitude 06:21:09 34° 116° (ESE) 704 ? -7.3°
Drops below altitude 10° 06:24:10 10° 49° (NE) 1,487 ? -6.6°
Sets 06:26:22 0° 39° (NE) 2,364 ? -6.2°
